When you browse on this site, cookies collect data to enhance your experience and personalize the content and advertising you see.
Visit our Privacy Policy to learn more. By continuing to use the site, you agree to this use of cookies and data.
  • In Czech Republic
  • List of Countries
  • For 7 days
  • Water Temperature
  • Satellite Maps
  • Weather Map
  • Weather Widgets
  • user-avatar
    Login

    Hourly Weather Merrillville

    Today, 22 February, Friday

    Time Temperature Precipitation Wind Pressure Humidity
    00:00 -1°C° 0 mm 1 mps 752 mmHg 76%
    01:00 -1°C° 0 mm 1 mps 753 mmHg 77%
    02:00 -3°C° 0 mm 2 mps 753 mmHg 78%
    03:00 -4°C° 0 mm 2 mps 753 mmHg 79%
    04:00 -4°C° 0 mm 2 mps 753 mmHg 80%
    05:00 -4°C° 0 mm 2 mps 754 mmHg 81%
    06:00 -4°C° 0 mm 2 mps 754 mmHg 82%
    07:00 -3°C° 0 mm 2 mps 754 mmHg 79%
    08:00 -3°C° 0 mm 2 mps 754 mmHg 75%
    09:00 -2°C° 0 mm 2 mps 754 mmHg 72%
    10:00 -1°C° 0 mm 2 mps 754 mmHg 66%
    11:00 +2°C° 0 mm 2 mps 754 mmHg 60%
    12:00 +3°C° 0 mm 2 mps 754 mmHg 54%
    13:00 +3°C° 0 mm 2 mps 754 mmHg 55%
    14:00 +4°C° 0 mm 2 mps 753 mmHg 55%
    15:00 +3°C° 0 mm 3 mps 753 mmHg 56%
    16:00 +2°C° 0 mm 3 mps 752 mmHg 62%
    17:00 +2°C° 0 mm 2 mps 752 mmHg 68%
    18:00 +1°C° 0 mm 2 mps 752 mmHg 74%
    19:00 0°C° 0 mm 3 mps 751 mmHg 74%
    20:00 0°C° 0 mm 3 mps 751 mmHg 74%
    21:00 -1°C° 0 mm 4 mps 751 mmHg 74%
    22:00 -1°C° 0 mm 4 mps 750 mmHg 74%
    23:00 -1°C° 0 mm 4 mps 750 mmHg 75%

    Tomorrow, 23 February, Saturday

    Time Temperature Precipitation Wind Pressure Humidity
    00:00 -1°C° 0 mm 4 mps 750 mmHg 76%
    01:00 -1°C° 0 mm 4 mps 749 mmHg 76%
    02:00 -1°C° 0 mm 4 mps 748 mmHg 76%
    03:00 -1°C° 0 mm 4 mps 747 mmHg 77%
    04:00 -1°C° 0 mm 4 mps 746 mmHg 78%
    05:00 -1°C° 0 mm 5 mps 745 mmHg 80%
    06:00 -1°C° 0 mm 5 mps 745 mmHg 81%
    07:00 -1°C° 0.1 mm 5 mps 744 mmHg 83%
    08:00 0°C° 0.1 mm 4 mps 744 mmHg 84%
    09:00 0°C° 0.1 mm 4 mps 743 mmHg 85%
    10:00 +1°C° 0.7 mm 4 mps 742 mmHg 88%
    11:00 +3°C° 0.7 mm 3 mps 741 mmHg 90%
    12:00 +3°C° 0.7 mm 3 mps 740 mmHg 92%
    13:00 +3°C° 0.1 mm 3 mps 739 mmHg 94%
    14:00 +3°C° 0.1 mm 3 mps 738 mmHg 96%
    15:00 +3°C° 0.1 mm 4 mps 736 mmHg 97%
    16:00 +5°C° 0.1 mm 4 mps 735 mmHg 97%
    17:00 +6°C° 0.1 mm 5 mps 733 mmHg 97%
    18:00 +8°C° 0.1 mm 6 mps 731 mmHg 97%
    19:00 +9°C° 1.1 mm 7 mps 730 mmHg 95%
    20:00 +11°C° 1.1 mm 8 mps 728 mmHg 93%
    21:00 +13°C° 1.1 mm 10 mps 727 mmHg 91%
    22:00 +11°C° 0.2 mm 8 mps 726 mmHg 83%
    23:00 +9°C° 0.2 mm 7 mps 726 mmHg 75%

    Day after tomorrow, 24 February, Sunday

    Time Temperature Precipitation Wind Pressure Humidity
    00:00 +7°C° 0.2 mm 6 mps 725 mmHg 66%
    01:00 +6°C° 0 mm 7 mps 725 mmHg 69%
    02:00 +5°C° 0 mm 8 mps 724 mmHg 72%
    03:00 +5°C° 0 mm 8 mps 723 mmHg 75%
    04:00 +3°C° 0.1 mm 9 mps 724 mmHg 75%
    05:00 +2°C° 0.1 mm 10 mps 725 mmHg 75%
    06:00 +1°C° 0.1 mm 11 mps 726 mmHg 75%
    07:00 -1°C° 0 mm 11 mps 728 mmHg 73%
    08:00 -1°C° 0 mm 11 mps 730 mmHg 71%
    09:00 -1°C° 0 mm 11 mps 732 mmHg 69%
    10:00 -1°C° 0 mm 11 mps 734 mmHg 65%
    11:00 -2°C° 0 mm 12 mps 735 mmHg 62%
    12:00 -2°C° 0 mm 12 mps 737 mmHg 58%
    13:00 -2°C° 0 mm 12 mps 738 mmHg 57%
    14:00 -3°C° 0 mm 12 mps 738 mmHg 57%
    15:00 -5°C° 0 mm 12 mps 739 mmHg 56%
    16:00 -6°C° 0 mm 12 mps 740 mmHg 58%
    17:00 -7°C° 0 mm 12 mps 741 mmHg 60%
    18:00 -8°C° 0 mm 11 mps 742 mmHg 62%
    19:00 -8°C° 0 mm 11 mps 743 mmHg 61%
    20:00 -8°C° 0 mm 11 mps 745 mmHg 61%
    21:00 -9°C° 0 mm 10 mps 746 mmHg 60%
    22:00 -9°C° 0 mm 10 mps 747 mmHg 60%
    23:00 -10°C° 0 mm 9 mps 748 mmHg 60%

    25 February, Monday

    Time Temperature Precipitation Wind Pressure Humidity
    00:00 -11°C° 0 mm 8 mps 748 mmHg 60%
    01:00 -12°C° 0 mm 8 mps 749 mmHg 59%
    02:00 -12°C° 0 mm 7 mps 750 mmHg 59%
    03:00 -12°C° 0 mm 6 mps 751 mmHg 59%
    04:00 -12°C° 0 mm 6 mps 752 mmHg 58%
    05:00 -13°C° 0 mm 5 mps 752 mmHg 57%
    06:00 -13°C° 0 mm 5 mps 753 mmHg 56%
    07:00 -13°C° 0 mm 5 mps 754 mmHg 52%
    08:00 -12°C° 0 mm 4 mps 754 mmHg 48%
    09:00 -12°C° 0 mm 4 mps 755 mmHg 45%
    10:00 -11°C° 0 mm 4 mps 755 mmHg 40%
    11:00 -9°C° 0 mm 3 mps 755 mmHg 35%
    12:00 -8°C° 0 mm 3 mps 755 mmHg 30%
    13:00 -7°C° 0 mm 3 mps 755 mmHg 30%
    14:00 -7°C° 0 mm 3 mps 755 mmHg 30%
    15:00 -5°C° 0 mm 2 mps 754 mmHg 30%
    16:00 -6°C° 0 mm 2 mps 754 mmHg 32%
    17:00 -6°C° 0 mm 2 mps 754 mmHg 34%
    18:00 -4°C° 0 mm 1 mps 754 mmHg 37%
    19:00 -4°C° 0 mm 1 mps 754 mmHg 38%
    20:00 -4°C° 0 mm 1 mps 755 mmHg 40%
    21:00 -4°C° 0 mm 1 mps 755 mmHg 42%
    22:00 -6°C° 0 mm 2 mps 755 mmHg 45%
    23:00 -6°C° 0 mm 2 mps 754 mmHg 49%

    26 February, Tuesday

    Time Temperature Precipitation Wind Pressure Humidity
    00:00 -6°C° 0 mm 2 mps 754 mmHg 52%
    01:00 -7°C° 0 mm 3 mps 754 mmHg 57%
    02:00 -7°C° 0 mm 3 mps 754 mmHg 61%
    03:00 -8°C° 0 mm 3 mps 754 mmHg 66%
    04:00 -8°C° 0.1 mm 3 mps 754 mmHg 69%
    05:00 -8°C° 0.1 mm 3 mps 754 mmHg 73%
    06:00 -8°C° 0.1 mm 3 mps 754 mmHg 77%
    07:00 -8°C° 0.1 mm 3 mps 754 mmHg 77%
    08:00 -8°C° 0.1 mm 4 mps 754 mmHg 76%
    09:00 -8°C° 0.1 mm 4 mps 753 mmHg 76%
    10:00 -7°C° 0 mm 4 mps 753 mmHg 71%
    11:00 -4°C° 0 mm 4 mps 752 mmHg 65%
    12:00 -4°C° 0 mm 5 mps 751 mmHg 60%
    13:00 -1°C° 0 mm 5 mps 750 mmHg 55%
    14:00 0°C° 0 mm 5 mps 749 mmHg 50%
    15:00 +2°C° 0 mm 5 mps 747 mmHg 46%
    16:00 +1°C° 0 mm 4 mps 747 mmHg 53%
    17:00 +1°C° 0 mm 3 mps 746 mmHg 60%
    18:00 +1°C° 0 mm 3 mps 746 mmHg 67%
    19:00 +2°C° 0.1 mm 2 mps 746 mmHg 74%
    20:00 +2°C° 0.1 mm 2 mps 745 mmHg 80%
    21:00 +3°C° 0.1 mm 2 mps 745 mmHg 87%
    22:00 +2°C° 0 mm 3 mps 744 mmHg 89%
    23:00 +2°C° 0 mm 3 mps 744 mmHg 90%

    27 February, Wednesday

    Time Temperature Precipitation Wind Pressure Humidity
    00:00 +3°C° 0 mm 3 mps 743 mmHg 92%
    01:00 +2°C° 0 mm 3 mps 743 mmHg 93%
    02:00 +2°C° 0 mm 3 mps 743 mmHg 94%
    03:00 +2°C° 0 mm 3 mps 743 mmHg 95%
    04:00 0°C° 0 mm 4 mps 743 mmHg 93%
    05:00 -1°C° 0 mm 4 mps 744 mmHg 90%
    06:00 -2°C° 0 mm 5 mps 745 mmHg 88%
    07:00 -2°C° 0 mm 5 mps 745 mmHg 84%
    08:00 -4°C° 0 mm 5 mps 746 mmHg 80%
    09:00 -4°C° 0 mm 6 mps 747 mmHg 76%
    10:00 -4°C° 0 mm 6 mps 748 mmHg 71%
    11:00 -4°C° 0 mm 6 mps 749 mmHg 66%
    12:00 -5°C° 0 mm 6 mps 749 mmHg 60%
    13:00 -5°C° 0 mm 6 mps 750 mmHg 59%
    14:00 -5°C° 0 mm 6 mps 750 mmHg 57%
    15:00 -5°C° 0 mm 5 mps 750 mmHg 55%
    16:00 -6°C° 0 mm 5 mps 751 mmHg 59%
    17:00 -7°C° 0 mm 4 mps 751 mmHg 62%
    18:00 -7°C° 0 mm 4 mps 751 mmHg 65%
    19:00 -8°C° 0 mm 4 mps 752 mmHg 65%
    20:00 -8°C° 0 mm 4 mps 752 mmHg 66%
    21:00 -7°C° 0 mm 3 mps 753 mmHg 66%
    22:00 -7°C° 0 mm 3 mps 753 mmHg 66%
    23:00 -7°C° 0 mm 3 mps 753 mmHg 65%
    Show more